Time,TemperatureF,DewpointF,PressureIn,WindDirection,WindDirectionDegrees,WindSpeedMPH,WindSpeedGustMPH,Humidity,HourlyPrecipIn,Conditions,Clouds,dailyrainin,SoftwareType,DateUTC
2013-05-11 00:00:00,78.1,74.0,30.09,SE,129,2.0,5.0,88,0.00,,,0.00,weatherlink.com 1.10,2013-05-11 04:00:00,
2013-05-11 00:15:00,78.0,75.0,30.10,SE,129,0.0,2.0,89,0.00,,,0.00,weatherlink.com 1.10,2013-05-11 04:15:00,
2013-05-11 00:30:00,77.8,75.0,30.10,SE,129,0.0,2.0,90,0.00,,,0.00,weatherlink.com 1.10,2013-05-11 04:30:00,
2013-05-11 00:45:00,77.6,75.0,30.10,SE,129,0.0,2.0,90,0.00,,,0.00,weatherlink.com 1.10,2013-05-11 04:45:00,
2013-05-11 01:00:00,77.4,75.0,30.10,SE,129,0.0,1.0,91,0.00,,,0.00,weatherlink.com 1.10,2013-05-11 05:00:00,
2013-05-11 01:15:00,77.1,75.0,30.09,SE,129,1.0,2.0,92,0.00,,,0.00,weatherlink.com 1.10,2013-05-11 05:15:00,
2013-05-11 01:30:00,76.9,75.0,30.09,SE,129,0.0,3.0,92,0.00,,,0.00,weatherlink.com 1.10,2013-05-11 05:30:00,
2013-05-11 01:45:00,76.5,74.0,30.09,SE,129,0.0,0.0,92,0.00,,,0.00,weatherlink.com 1.10,2013-05-11 05:45:00,
2013-05-11 02:00:00,76.0,74.0,30.09,SE,129,0.0,0.0,93,0.00,,,0.00,weatherlink.com 1.10,2013-05-11 06:00:00,
2013-05-11 02:15:00,75.8,74.0,30.08,SE,129,0.0,0.0,94,0.00,,,0.00,weatherlink.com 1.10,2013-05-11 06:15:00,
2013-05-11 02:31:00,75.6,74.0,30.07,SE,129,0.0,0.0,94,0.00,,,0.00,weatherlink.com 1.10,2013-05-11 06:31:00,
2013-05-11 02:46:00,75.3,74.0,30.07,SE,129,0.0,0.0,95,0.00,,,0.00,weatherlink.com 1.10,2013-05-11 06:46:00,
2013-05-11 03:01:00,74.9,73.0,30.07,SE,129,0.0,0.0,95,0.00,,,0.00,weatherlink.com 1.10,2013-05-11 07:01:00,
2013-05-11 03:16:00,75.0,74.0,30.06,SE,129,0.0,0.0,96,0.00,,,0.00,weatherlink.com 1.10,2013-05-11 07:16:00,
2013-05-11 03:31:00,75.0,74.0,30.06,SE,129,0.0,0.0,96,0.00,,,0.00,weatherlink.com 1.10,2013-05-11 07:31:00,
2013-05-11 03:46:00,74.8,74.0,30.06,SE,129,0.0,0.0,96,0.00,,,0.00,weatherlink.com 1.10,2013-05-11 07:46:00,
2013-05-11 04:01:00,74.5,73.0,30.06,SE,129,0.0,0.0,96,0.00,,,0.00,weatherlink.com 1.10,2013-05-11 08:01:00,
2013-05-11 04:16:00,74.4,73.0,30.06,SE,129,0.0,0.0,96,0.00,,,0.00,weatherlink.com 1.10,2013-05-11 08:16:00,
2013-05-11 04:31:00,74.1,73.0,30.06,SE,129,0.0,0.0,96,0.00,,,0.00,weatherlink.com 1.10,2013-05-11 08:31:00,
2013-05-11 04:46:00,74.2,73.0,30.07,SE,129,0.0,0.0,97,0.00,,,0.00,weatherlink.com 1.10,2013-05-11 08:46:00,
2013-05-11 05:01:00,74.0,73.0,30.06,SE,129,0.0,0.0,96,0.00,,,0.00,weatherlink.com 1.10,2013-05-11 09:01:00,
2013-05-11 05:16:00,74.1,73.0,30.07,SE,129,0.0,0.0,97,0.00,,,0.00,weatherlink.com 1.10,2013-05-11 09:16:00,
2013-05-11 05:31:00,74.1,73.0,30.06,SE,129,0.0,0.0,97,0.00,,,0.00,weatherlink.com 1.10,2013-05-11 09:31:00,
2013-05-11 05:46:00,73.7,73.0,30.07,SE,129,0.0,0.0,97,0.00,,,0.00,weatherlink.com 1.10,2013-05-11 09:46:00,
2013-05-11 06:01:00,73.7,73.0,30.07,SE,129,0.0,0.0,97,0.00,,,0.00,weatherlink.com 1.10,2013-05-11 10:01:00,
2013-05-11 06:16:00,73.7,73.0,30.06,SE,129,0.0,1.0,97,0.00,,,0.00,weatherlink.com 1.10,2013-05-11 10:16:00,
2013-05-11 06:31:00,73.9,73.0,30.06,SE,129,1.0,2.0,97,0.00,,,0.00,weatherlink.com 1.10,2013-05-11 10:31:00,
2013-05-11 06:46:00,74.0,73.0,30.06,SE,129,0.0,1.0,97,0.00,,,0.00,weatherlink.com 1.10,2013-05-11 10:46:00,
2013-05-11 07:01:00,73.9,73.0,30.06,SE,129,0.0,0.0,97,0.00,,,0.00,weatherlink.com 1.10,2013-05-11 11:01:00,
2013-05-11 07:16:00,74.1,74.0,30.07,SE,129,0.0,0.0,98,0.00,,,0.00,weatherlink.com 1.10,2013-05-11 11:16:00,
2013-05-11 07:31:00,74.7,74.0,30.08,SE,129,0.0,0.0,98,0.00,,,0.00,weatherlink.com 1.10,2013-05-11 11:31:00,
2013-05-11 07:46:00,75.3,75.0,30.09,SE,129,1.0,1.0,98,0.00,,,0.00,weatherlink.com 1.10,2013-05-11 11:46:00,
2013-05-11 08:01:00,76.2,75.0,30.09,SE,129,1.0,2.0,97,0.00,,,0.00,weatherlink.com 1.10,2013-05-11 12:01:00,
2013-05-11 08:16:00,77.2,76.0,30.09,SE,129,2.0,5.0,96,0.00,,,0.00,weatherlink.com 1.10,2013-05-11 12:16:00,
2013-05-11 08:31:00,78.3,76.0,30.09,SE,124,3.0,8.0,92,0.01,,,0.01,weatherlink.com 1.10,2013-05-11 12:31:00,
2013-05-11 08:46:00,79.6,76.0,30.09,South,169,5.0,9.0,88,0.01,,,0.01,weatherlink.com 1.10,2013-05-11 12:46:00,
2013-05-11 09:01:00,80.5,76.0,30.09,SE,130,3.0,7.0,86,0.01,,,0.01,weatherlink.com 1.10,2013-05-11 13:01:00,
2013-05-11 09:12:00,-999.0,-99.9,30.09,North,-999,-999.0,-999.0,-999,0.00,,,0.00,weatherlink.com 1.10,2013-05-11 13:12:00,
2013-05-11 09:27:00,80.6,75.0,30.10,SE,140,6.0,9.0,83,0.00,,,0.00,weatherlink.com 1.10,2013-05-11 13:27:00,
2013-05-11 09:42:00,80.9,75.0,30.10,SE,143,6.0,13.0,82,0.00,,,0.00,weatherlink.com 1.10,2013-05-11 13:42:00,
2013-05-11 09:57:00,82.2,75.0,30.09,SE,130,6.0,11.0,79,0.00,,,0.00,weatherlink.com 1.10,2013-05-11 13:57:00,
2013-05-11 10:12:00,82.5,74.0,30.10,ESE,115,5.0,12.0,76,0.00,,,0.00,weatherlink.com 1.10,2013-05-11 14:12:00,
2013-05-11 10:27:00,83.1,74.0,30.10,SE,143,8.0,11.0,74,0.00,,,0.00,weatherlink.com 1.10,2013-05-11 14:27:00,
2013-05-11 10:42:00,83.9,74.0,30.09,SE,131,12.0,12.0,71,0.00,,,0.00,weatherlink.com 1.10,2013-05-11 14:42:00,
2013-05-11 10:57:00,84.3,73.0,30.09,SE,136,7.0,13.0,69,0.00,,,0.00,weatherlink.com 1.10,2013-05-11 14:57:00,
2013-05-11 11:12:00,85.0,74.0,30.09,ESE,117,4.0,12.0,70,0.00,,,0.00,weatherlink.com 1.10,2013-05-11 15:12:00,
2013-05-11 11:27:00,86.2,74.0,30.09,SE,135,11.0,12.0,68,0.00,,,0.00,weatherlink.com 1.10,2013-05-11 15:27:00,
2013-05-11 11:42:00,85.9,75.0,30.09,ESE,105,5.0,12.0,70,0.00,,,0.00,weatherlink.com 1.10,2013-05-11 15:42:00,
2013-05-11 11:57:00,86.0,75.0,30.08,East,96,7.0,17.0,70,0.00,,,0.00,weatherlink.com 1.10,2013-05-11 15:57:00,
2013-05-11 12:12:00,87.0,73.0,30.07,ESE,121,4.0,12.0,64,0.00,,,0.00,weatherlink.com 1.10,2013-05-11 16:12:00,
2013-05-11 12:27:00,87.5,74.0,30.07,East,98,10.0,15.0,64,0.00,,,0.00,weatherlink.com 1.10,2013-05-11 16:27:00,
2013-05-11 12:42:00,87.9,74.0,30.07,ESE,114,0.0,14.0,64,0.00,,,0.00,weatherlink.com 1.10,2013-05-11 16:42:00,
2013-05-11 12:57:00,87.6,75.0,30.07,East,99,8.0,12.0,66,0.00,,,0.00,weatherlink.com 1.10,2013-05-11 16:57:00,
2013-05-11 13:12:00,88.2,76.0,30.06,East,82,6.0,15.0,67,0.00,,,0.00,weatherlink.com 1.10,2013-05-11 17:12:00,
2013-05-11 13:27:00,87.2,75.0,30.06,ESE,110,5.0,14.0,67,0.00,,,0.00,weatherlink.com 1.10,2013-05-11 17:27:00,
2013-05-11 13:42:00,87.0,75.0,30.05,SE,137,10.0,13.0,68,0.00,,,0.00,weatherlink.com 1.10,2013-05-11 17:42:00,
2013-05-11 13:57:00,80.9,72.0,30.07,SE,146,15.0,17.0,74,0.13,,,0.13,weatherlink.com 1.10,2013-05-11 17:57:00,
2013-05-11 14:12:00,76.0,72.0,30.05,ENE,65,7.0,14.0,88,0.25,,,0.25,weatherlink.com 1.10,2013-05-11 18:12:00,
2013-05-11 14:27:00,79.1,77.0,30.06,ENE,74,9.0,12.0,93,0.25,,,0.25,weatherlink.com 1.10,2013-05-11 18:27:00,
2013-05-11 14:42:00,82.6,77.0,30.05,ENE,63,5.0,17.0,83,0.26,,,0.26,weatherlink.com 1.10,2013-05-11 18:42:00,
2013-05-11 14:57:00,81.4,72.0,30.05,ESE,111,9.0,17.0,73,0.11,,,0.26,weatherlink.com 1.10,2013-05-11 18:57:00,
2013-05-11 15:12:00,82.5,72.0,30.04,SE,130,8.0,14.0,70,0.01,,,0.26,weatherlink.com 1.10,2013-05-11 19:12:00,
2013-05-11 15:27:00,84.9,75.0,30.04,ENE,75,9.0,9.0,73,0.01,,,0.26,weatherlink.com 1.10,2013-05-11 19:27:00,
2013-05-11 15:42:00,84.6,76.0,30.03,East,91,5.0,15.0,74,0.00,,,0.26,weatherlink.com 1.10,2013-05-11 19:42:00,
2013-05-11 15:57:00,85.7,76.0,30.03,ESE,116,7.0,17.0,72,0.00,,,0.26,weatherlink.com 1.10,2013-05-11 19:57:00,
2013-05-11 16:13:00,86.1,76.0,30.03,ESE,123,8.0,15.0,71,0.00,,,0.26,weatherlink.com 1.10,2013-05-11 20:13:00,
2013-05-11 16:28:00,85.0,75.0,30.02,ESE,109,13.0,20.0,73,0.00,,,0.26,weatherlink.com 1.10,2013-05-11 20:28:00,
2013-05-11 16:43:00,84.7,75.0,30.01,East,101,5.0,18.0,73,0.00,,,0.26,weatherlink.com 1.10,2013-05-11 20:43:00,
2013-05-11 16:58:00,84.6,75.0,30.01,ESE,108,7.0,17.0,72,0.00,,,0.26,weatherlink.com 1.10,2013-05-11 20:58:00,
2013-05-11 17:13:00,84.5,74.0,30.02,SSE,148,6.0,16.0,71,0.00,,,0.26,weatherlink.com 1.10,2013-05-11 21:13:00,
2013-05-11 17:28:00,84.3,75.0,30.01,East,88,5.0,15.0,73,0.00,,,0.26,weatherlink.com 1.10,2013-05-11 21:28:00,
2013-05-11 17:43:00,82.9,74.0,30.00,ENE,76,5.0,16.0,75,0.00,,,0.26,weatherlink.com 1.10,2013-05-11 21:43:00,
2013-05-11 17:58:00,82.4,73.0,30.01,ESE,102,10.0,15.0,74,0.00,,,0.26,weatherlink.com 1.10,2013-05-11 21:58:00,
2013-05-11 18:13:00,81.6,74.0,30.01,SE,143,8.0,16.0,77,0.00,,,0.26,weatherlink.com 1.10,2013-05-11 22:13:00,
2013-05-11 18:28:00,81.1,74.0,30.01,SSE,155,4.0,13.0,78,0.00,,,0.26,weatherlink.com 1.10,2013-05-11 22:28:00,
2013-05-11 18:43:00,80.7,74.0,30.02,South,176,5.0,12.0,79,0.00,,,0.26,weatherlink.com 1.10,2013-05-11 22:43:00,
2013-05-11 18:58:00,80.7,74.0,30.03,SE,126,4.0,11.0,79,0.00,,,0.26,weatherlink.com 1.10,2013-05-11 22:58:00,
2013-05-11 19:13:00,80.8,74.0,30.04,SE,144,5.0,8.0,79,0.00,,,0.26,weatherlink.com 1.10,2013-05-11 23:13:00,
2013-05-11 19:28:00,80.7,74.0,30.04,SE,146,2.0,7.0,81,0.00,,,0.26,weatherlink.com 1.10,2013-05-11 23:28:00,
2013-05-11 19:43:00,80.1,74.0,30.04,South,182,4.0,6.0,82,0.00,,,0.26,weatherlink.com 1.10,2013-05-11 23:43:00,
2013-05-11 19:58:00,77.8,73.0,30.06,ESE,118,8.0,18.0,84,0.04,,,0.30,weatherlink.com 1.10,2013-05-11 23:58:00,
2013-05-11 20:13:00,74.0,71.0,30.06,SSE,161,0.0,9.0,90,0.11,,,0.37,weatherlink.com 1.10,2013-05-12 00:13:00,
2013-05-11 20:28:00,73.7,70.0,30.06,ESE,108,0.0,4.0,89,0.11,,,0.37,weatherlink.com 1.10,2013-05-12 00:28:00,
2013-05-11 20:43:00,73.7,71.0,30.07,ESE,108,0.0,2.0,91,0.11,,,0.37,weatherlink.com 1.10,2013-05-12 00:43:00,
2013-05-11 20:58:00,73.5,71.0,30.07,ESE,108,0.0,1.0,92,0.04,,,0.37,weatherlink.com 1.10,2013-05-12 00:58:00,
2013-05-11 21:13:00,73.4,71.0,30.07,ESE,108,0.0,1.0,93,0.00,,,0.37,weatherlink.com 1.10,2013-05-12 01:13:00,
2013-05-11 21:28:00,73.6,72.0,30.07,ESE,108,1.0,4.0,95,0.00,,,0.37,weatherlink.com 1.10,2013-05-12 01:28:00,
2013-05-11 21:43:00,74.1,73.0,30.09,WSW,257,5.0,9.0,95,0.00,,,0.37,weatherlink.com 1.10,2013-05-12 01:43:00,
2013-05-11 21:58:00,75.0,73.0,30.09,NNE,14,4.0,8.0,93,0.00,,,0.37,weatherlink.com 1.10,2013-05-12 01:58:00,
2013-05-11 22:13:00,74.8,72.0,30.08,NNW,348,3.0,4.0,91,0.01,,,0.38,weatherlink.com 1.10,2013-05-12 02:13:00,
2013-05-11 22:28:00,72.9,71.0,30.10,NNW,327,5.0,13.0,93,0.03,,,0.40,weatherlink.com 1.10,2013-05-12 02:28:00,
2013-05-11 22:43:00,72.8,71.0,30.11,NNW,345,0.0,5.0,94,0.03,,,0.40,weatherlink.com 1.10,2013-05-12 02:43:00,
2013-05-11 22:58:00,72.9,71.0,30.10,North,355,1.0,6.0,93,0.03,,,0.40,weatherlink.com 1.10,2013-05-12 02:58:00,
2013-05-11 23:13:00,72.9,71.0,30.09,North,355,1.0,3.0,93,0.02,,,0.40,weatherlink.com 1.10,2013-05-12 03:13:00,
2013-05-11 23:28:00,72.9,71.0,30.09,North,355,1.0,2.0,93,0.00,,,0.40,weatherlink.com 1.10,2013-05-12 03:28:00,
2013-05-11 23:43:00,72.4,70.0,30.08,ESE,122,0.0,5.0,93,0.00,,,0.40,weatherlink.com 1.10,2013-05-12 03:43:00,
2013-05-11 23:58:00,72.6,71.0,30.09,ESE,122,0.0,0.0,95,0.00,,,0.40,weatherlink.com 1.10,2013-05-12 03:58:00,